Tracking 22441 objects as of 1-Mar-2021
HD Live streaming from Space Station
objects crossing your sky now

ASTRA 1G

Track ASTRA 1G now!
ASTRA 1G is classified as:


NORAD ID: 25071
Int'l Code: 1997-076A
Perigee: 35,778.1 km
Apogee: 35,811.4 km
Inclination: 5.2 °
Period: 1,436.1 minutes
Semi major axis: 42165 km
RCS: 1.138 m2 (large)
Launch date: December 2, 1997
Source: SOCIETE EUROPEENNE DES SATELLITES (SES)
Launch site: TYURATAM MISSILE AND SPACE COMPLEX (TTMTR)

Direct-to-home tv; multimedia; 32 Ku-band transponders; Europe
aabbcc
Your satellite tracking list
Your tracking list is empty




NASA's NSSDC Master Catalog

Two Line Element Set (TLE):
1 25071U 97076A   21060.17812882  .00000110  00000-0  00000+0 0  9991
2 25071   5.1794  71.6369 0003943 271.5655 259.5212  1.00268133 85143
Source of the keplerian elements: AFSPC